Regional Weather Roundup
Issued by NWS Wakefield, VA

Home | Current Version | Previous Version | Graphics & Text | Print | Product List | Glossary On
Versions: 1 2 3 4 5 6 7 8 9 10 11 12 13 14 15 16 17 18 19 20 21 22 23 24 25 26 27
000
ASUS41 KAKQ 152016
RWRAKQ

REGIONAL WEATHER ROUNDUP
NATIONAL WEATHER SERVICE WAKEFIELD VA
400 PM EDT TUE AUG 15 2017

Note: "fair" indicates few or no clouds below 12,000 feet with no
significant weather and/or obstructions to visibility. * = Denotes
station may not report precipitation (e.g., rain,snow,etc.),
thunder or fog.

VAZ042-051-052>054-056-152100-
NORTHERN VIRGINIA

CITY           SKY/WX    TMP DP  RH WIND       PRES   REMARKS
WASH NATIONAL  CLOUDY    79  75  87 NW10      29.88F
DULLES         CLOUDY    79  73  82 N5        29.88F
FORT BELVOIR   CLOUDY    81  73  78 NW5       29.87F
QUANTICO       CLOUDY    81  75  82 NE3       29.87F
FREDERICKSBRG* MOSUNNY   83  75  75 CALM      29.86S
STAFFORD*      CLOUDY    81  76  84 CALM      29.91F
WARRENTON      CLOUDY    81  72  73 N3        29.87F
CULPEPER*      CLOUDY    81  74  80 N5        29.89S
MANASSAS*      CLOUDY    81  73  78 NE6       29.88F
LEESBURG*      CLOUDY    79  75  89 NE3       29.90F
WINCHESTER     CLOUDY    75  70  83 NE3       29.90F
FRONT ROYAL*   MOCLDY    77  72  83 N5        29.90S
LURAY*         PTCLDY    79  72  78 CALM      29.91S
$$

VAZ048-049-060>072-079>083-152100-
CENTRAL AND SOUTH CENTRAL VIRGINIA

CITY           SKY/WX    TMP DP  RH WIND       PRES   REMARKS
RICHMOND       CLOUDY    83  76  79 S7        29.86R
CHESTERFIELD*  CLOUDY    85  76  74 CALM      29.86F
PETERSBURG*    CLOUDY    85  73  68 S5        29.87S
HANOVER        CLOUDY    84  73  69 VRB3      29.87R
TAPPAHANNOCK*  CLOUDY    81  77  85 N6        29.88R
QUINTON*       FAIR     N/A N/A N/A CALM      29.85S
CHARLOTTSVILLE CLOUDY    83  74  74 CALM      29.88S
GORDONSVILLE*  MOCLDY    83  74  75 NW3       29.87S
ORANGE*        PTSUNNY   81  73  78 CALM      29.88S
LOUISA*        SUNNY     82  72  69 CALM      29.87S
BUMPASS*       FAIR      83  77  82 CALM      29.86F
FARMVILLE*     PTSUNNY   86  70  58 N3        29.86S
CREWE*         CLOUDY    84  76  76 CALM      29.87R
FORT PICKETT*  MOCLDY   N/A N/A N/A S3        29.87S
CHASE CITY*    MOCLDY    87  75  67 NW3       29.87S HX  95
CLARKSVILLE*   MOCLDY    88  75  66 W3        29.86S HX  97
SOUTH HILL*    CLOUDY    83  78  85 S6        29.92F
LAWRENCEVILLE* FAIR      82  77  85 CALM      29.87F
EMPORIA*       CLOUDY    79  77  94 NW3       29.88F
$$

VAZ088>098-152100-
SOUTHEAST VIRGINIA

CITY           SKY/WX    TMP DP  RH WIND       PRES   REMARKS
NORFOLK        CLOUDY    89  75  63 SW10      29.82S HX  99
VIRGINIA BEACH HVY RAIN  83  75  77 SE6       29.83R FOG
NORFOLK NAVAL  CLOUDY    86  75  69 N8        29.84R THUNDER HX  95
WEST POINT*    CLOUDY    82  75  79 NE6       29.86F
SALUDA*        MOCLDY    78  77  95 CALM      29.85F
NEWPORT NEWS   TSTM      77  75  93 NE8       29.85R FOG
LANGLEY AFB    CLOUDY    79  76  93 N15       29.84R THUNDER
FORT EUSTIS    LGT RAIN  79  75  89 N3        29.84R
WILLIAMSBURG*  CLOUDY    81  79  94 CALM      29.87R
HR EXEC AP*    FAIR      84  75  74 W5        29.80S
FRANKLIN*      CLOUDY    84  77  81 W7        29.85F THUNDER
US460-WAKEFLD  RAIN      78  77  96 VRB3      29.85S FOG
$$

VAZ020-022-025-037-045-152100-
WEST CENTRAL AND SOUTHWEST VIRGINIA

CITY           SKY/WX    TMP DP  RH WIND       PRES   REMARKS
STAUNTON*      CLOUDY    79  72  79 NE3       29.92F
WAYNESBORO*    CLOUDY    79  71  76 CALM      29.92F
HOT SPRINGS VA   N/A    N/A N/A N/A MISG        N/A
LYNCHBURG      CLOUDY    82  71  69 CALM      29.90S
DANVILLE       LGT RAIN  83  76  79 W3        29.87F
SOUTH BOSTON*  FAIR      86  72  61 CALM      29.86F
MARTINSVILLE   CLOUDY    79  72  80 CALM      29.93F
ROANOKE        CLOUDY    86  71  60 NW9       29.92F
BLACKSBURG     MOSUNNY   81  69  67 NW8       30.00F
DUBLIN*        PTSUNNY   80  66  62 N3        29.99S
MARION*        PTSUNNY   80  66  63 W8G16     30.02S
HILLSVILLE*    MOSUNNY   78  64  60 CALM      29.99S
RICHLANDS*     CLOUDY    76  68  76 NW5       30.03F
WISE*          MOSUNNY   77  68  73 NW6       30.04F
ABINGDON*      PTSUNNY   82  70  68 NW10      29.99F
$$

MDZ021>025-VAZ099-100-152100-
SOUTHERN MARYLAND AND THE DELMARVA PENINSULA

CITY           SKY/WX    TMP DP  RH WIND       PRES   REMARKS
PATUXENT RIVER CLOUDY    81  77  88 N3        29.86F
BAY BRIDGE APT HVY RAIN  75  73  94 N3        29.87F FOG
LEONARDTOWN    CLOUDY    79  72  78 NW3       29.88S
DOVER          LGT RAIN  75  75 100 E5        29.86S
GEORGETOWN     LGT RAIN  79  76  90 E6        29.87F
EASTON         PTSUNNY   81  77  89 CALM      29.90F
CAMBRIDGE      PTSUNNY   81  77  89 N6        29.85F
SALISBURY      LGT RAIN  77  76  96 E8        29.87S
OCEAN CITY     HVY RAIN  77  77 100 E6        29.89R FOG
WALLOPS ISLAND RAIN      77  77 100 S3        29.88S FOG
ACCOMACK*        N/A    N/A N/A N/A MISG        N/A
$$

NCZ012>017-030>032-152100-
NORTH CENTRAL AND EASTERN NORTH CAROLINA

CITY           SKY/WX    TMP DP  RH WIND       PRES   REMARKS
ROANOKE RAPIDS RAIN      77  77 100 CALM      29.88R
RALEIGH        PTSUNNY   91  74  57 W6        29.85F HX 100
ELIZABETH CITY MOSUNNY   88  78  72 SE9       29.84F HX 101
AHOSKIE*         N/A     81  78  92 CALM      29.86R
EDENTON*       MOSUNNY   90  77  64 S3        29.84F HX 103
CURRITUCK*     PTSUNNY   89  49  25 S3        29.85S
KILL DEVIL HLS MOSUNNY   85  74  69 CALM      29.83F
MANTEO         MOSUNNY   85  76  73 SW9       29.85F
CAPE HATTERAS  SUNNY     87  77  72 S6        29.84F HX  99
TARBORO*       NOT AVBL
GOLDSBORO      MOSUNNY   93  79  62 W12G20    29.84R HX 110
WASHINGTON     SUNNY     91  77  63 S6        29.83S HX 104
GREENVILLE     CLOUDY    90  77  66 NW3       29.87S HX 102
NEW BERN       PTSUNNY   89  80  74 SE6       29.84F HX 106
WILMINGTON     MOSUNNY   91  80  70 S9        29.84F HX 109
$$

VAZ048-152100-
ELSEWHERE

CITY           SKY/WX    TMP DP  RH WIND       PRES   REMARKS
HARRISBURG PA  CLOUDY    77  70  79 CALM      29.89F
BALTIMORE      CLOUDY    77  75  93 N3        29.88S
ANNAPOLIS      CLOUDY    80  78  94 N9        29.87S
ANDREWS AFB    CLOUDY    79  72  80 NW3       29.87F
PHILADELPHIA   CLOUDY    77  73  87 CALM      29.89S
HENDERSON NC   LGT RAIN  84  73  68 NW6       29.87S
GREENSBORO     LGT RAIN  84  75  74 W9        29.89F
ROCKY MOUNT    CLOUDY    81  79  94 N5        29.86F
$$

VAZ100-152100-
MARINE

STATION/POSITION TIME  TEMP    WIND        PRES    WAVE   SWELL
                       AIR SEA DIR/SP/G            HT/PER HT/PER
                 (UTC) (F)     (DEG/KT/KT) (MB)    (FT/S) (FT/S)
BRANDYWINE LGT   1942   76     110/  4/  5 1011.6F
CAPE MAY NJ      1948   76 77  110/  6/  8 1010.7F
LEWES DE         1942   76 77   90/  7/  9 1011.1F
15NM E FENWICK I 1950   77 78   60/  2/  4 1012.1S   3/ 7   3/ 7
OCEAN-CITY-INLET 1942   77 77  100/  5/  6 1012.3R
WACHAPREAGUE VA  1942   76 81  340/  4/  9 1012.3R
THOMAS POINT MD  2000   75 79   10/ 13/ 14   N/A
GOOSES REEF MD   2000   80 79  310/  4/  4 1011.9    0
COVE POINT MD    1942   77      30/  4/  5 1011.6F
SOLOMONS ISLAND  1942   79 80   10/  3/  4   N/A
BISHOPS HEAD MD  1942   79 81  280/  5/  6 1011.2F
PINEY POINT MD   1942          320/  2/  3   N/A
POTOMAC MD       2000   79 80   40/  4/  8 1010.3    0
CAMBRIDGE MD     1942   80 80              1011.7F
LEWISETTA VA     1942   79 81   80/  2/  4 1010.9R
RAPPAHANNOCK LGT 1942          340/  9/ 10 1012.1R
STINGRAY PT      2000   76 80   40/  8/ 12 1011.9    1
YORK RVR RNG VA  1942   76      60/  7/  8 1011.8R
YORKTOWN VA      1942   77 80  110/  7/ 10 1011.0R
JAMESTOWN VA     2000      82   20/  6/  6   N/A     1
DOMINION TERM VA 1942   81     310/ 10/ 12 1010.4R
KIPTOPEKE VA     1942      79  140/ 10/ 12   N/A
CHES BAY BRIDGE  1942   82 76  160/  7/ 13 1009.8F
CAPE HENRY VA    1942   80     140/ 12/ 15   N/A
WILLOUBY STN VA  1942   81      70/  4/  5 1010.3R
S CRANEY ISL VA  1942   89     260/  7/ 11 1009.9R
CAPE HENRY BUOY  2000      79                N/A     3/13   2/13
1ST LANDING BUOY 2000   80 80              1009.8    2/ 3
64NM E OF VA BCH 1950   80 81  130/  4/  6 1010.9F   6/12   7/12
DUCK PIER NC     1942   83 76  120/  9/  9 1010.2F
44100 DUCK FRF   1905      80                N/A     5/12   3/12
44056 DUCK FRF   1930      80                N/A     4/13   3/13
OREGON INLET NC  1942   83 81  100/  6/  8 1010.4F
HATTERAS NC      1942   84 84  160/  5/  7 1010.6F
DIAMOND SHLS NC  1950   82 85  350/  4/  8 1010.4F   7/11   7/11
CAPE LOOKOUT NC  2000   85     220/  6/  8 1010.4F
$$




USA.gov is the U.S. government's official web portal to all federal, state and local government web resources and services.